www.pogodaiklimat.ru

АРХИВ ПОГОДЫ в Эшвилле

Время (UTC), дата Ветер
(напр.,м/с)
 
Видим.   Явления Облачность Т
(С)
Тd
(С)
f
(%)
Тe
(С)
Тes
(С)
Комфортность

P
(гПа)

Po
(гПа)
Тmin
(С)
Tmax
(С)
R
(мм)
SD
(см)
09:54 24.05   10 км  дымка  ясно  +16.1  +14.4  90  +16  +16    1021.4  945.9         
10:54 24.05   16 км    ясно  +18.9  +15.6  81  +20  +20    1021.7  946.6  +16.1  +19.4     
11:54 24.05 С  16 км    ясно  +22.2  +16.7  71  +27  +28  душно  1021.6  946.6         
12:54 24.05 С  16 км    ясно  +25.0  +17.2  62  +29  +31  душно  1021.7  946.9         
13:54 24.05 С  16 км    2/2 1050 м  +26.7  +17.2  56  +31  +33  душно  1021.8  946.9         
14:54 24.05 С  16 км    ясно  +27.8  +16.7  51  +31  +37  душно  1021.4  946.6         
15:54 24.05 С  16 км    2/2 900 м  +29.4  +16.7  46  +33  +41  душно  1021.1  946.3         
16:54 24.05 С  7
{9} 
16 км    2/2 1800 м  +30.0  +15.0  40  +32  +36  жарко  1020.5  945.9  +18.9  +30.0     
17:54 24.05 С  4
{10} 
16 км    ясно  +30.6  +15.0  39  +33  +43  душно  1019.7  945.0         
18:54 24.05 С  6
{10} 
16 км    ясно  +30.6  +15.0  39  +33  +39  душно  1019.8  945.0         
19:54 24.05 С  5
{9} 
16 км    ясно  +31.1  +15.0  38  +33  +39  душно  1019.5  944.7         
20:54 24.05 С  4
{9} 
16 км    ясно  +30.0  +15.0  40  +32  +37  жарко  1019.8  945.0         
21:54 24.05 С  16 км    ясно  +29.4  +15.0  42  +32  +35  душно  1019.8  944.7         
22:54 24.05 С  16 км    ясно  +28.3  +15.0  44  +31  +32  душно  1019.8  945.0  +28.3  +31.1     
23:54 24.05 С  16 км    ясно  +25.6  +15.0  52  +28  +29  жарко  1020.0  945.3         
00:54 25.05   16 км    ясно  +24.4  +15.6  58  +27  +27  жарко  1020.0  945.3         
01:54 25.05   16 км    ясно  +21.7  +16.1  70  +25  +25  комфорт  1020.3  945.6         
02:54 25.05   16 км    ясно  +21.1  +16.1  73  +24  +24  комфорт  1020.0  945.3         
03:54 25.05   16 км    ясно  +19.4  +16.1  81  +21  +21  комфорт  1019.9  945.3         
04:54 25.05 ЮЗ  16 км    ясно  +18.3  +16.1  87  +20  +20    1019.5  944.7  +18.3  +28.3     
05:54 25.05   16 км    ясно  +17.2  +15.6  90  +17  +17    1019.7  945.0         
06:54 25.05   16 км    ясно  +17.2  +15.6  90  +17  +17    1019.8  945.0         
07:54 25.05 С  16 км    ясно  +17.8  +15.0  84  +19  +19    1020.4  945.6         
08:54 25.05 ЮЗ  13 км    ясно  +16.7  +15.0  90  +17  +17    1021.0  945.9         
09:54 25.05   13 км    ясно  +16.7  +15.0  90  +17  +17    1021.5  946.6         
10:54 25.05   14 км    ясно  +18.9  +15.6  81  +20  +20    1021.6  946.6  +16.7  +19.4     
11:54 25.05 СЗ  16 км    ясно  +22.2  +16.1  68  +26  +28  душно  1021.8  946.9         
12:54 25.05   16 км    ясно  +24.4  +17.2  64  +28  +36  душно  1021.6  946.9         
13:54 25.05 нст  16 км    ясно  +27.2  +16.7  53  +31  +39  душно  1021.7  946.9         
14:54 25.05   16 км    8/0 2100 м
[средняя] 
+27.8  +16.7  51  +31  +40  душно  1021.7  946.9         
16:54 25.05   16 км    2/2 1650 м
[средняя] 
+31.1  +16.1  40  +34  +56  опасность
солнечного
удара 
1020.2  945.6  +18.9  +31.1     
17:54 25.05 С  16 км    ясно  +31.7  +15.0  36  +34  +52  опасность
солнечного
удара 
1019.4  944.7         
18:54 25.05 нст  16 км    2/0 2550 м
[средняя] 
+30.0  +16.7  45  +34  +51  опасность
солнечного
удара 
1019.0  944.4         
19:54 25.05 Ю  16 км    8/0 2250 м
[средняя] 
+30.0  +15.6  42  +33  +40  душно  1018.9  944.1         
20:54 25.05 нст  16 км    ясно  +31.1  +16.7  42  +34  +45  душно  1018.7  944.1         
21:54 25.05 С  16 км    5/0 2700 м
[средняя] 
+29.4  +17.8  50  +34  +36  очень
душно 
1019.0  944.1         
22:54 25.05 СЗ  16 км    ясно  +27.8  +16.7  51  +31  +33  душно  1019.5  944.7  +27.8  +31.7     
23:54 25.05 СЗ  16 км    ясно  +26.1  +16.1  54  +29  +30  жарко  1019.3  944.7         
00:54 26.05 С  16 км    ясно  +24.4  +16.7  62  +28  +28  душно  1019.9  945.3         
01:54 26.05 СЗ  16 км    ясно  +23.3  +17.2  69  +29  +29  душно  1020.1  945.3         
02:54 26.05   16 км    ясно  +21.1  +17.2  78  +25  +25  комфорт  1020.1  945.3         
03:54 26.05   16 км    ясно  +20.0  +17.2  84  +23  +23  комфорт  1020.0  945.3         
04:54 26.05 СЗ  16 км    ясно  +19.4  +15.6  79  +22  +22  комфорт  1019.8  945.0  +18.9  +27.8     
05:54 26.05   16 км    ясно  +18.3  +16.1  87  +19  +19    1019.4  944.7         
06:54 26.05   16 км    ясно  +17.8  +15.6  87  +18  +18    1019.7  945.0         
07:54 26.05   16 км    ясно  +17.2  +15.0  87  +17  +17    1020.0  945.3         
08:54 26.05   16 км    ясно  +16.7  +15.0  90  +17  +17    1020.4  945.6         
09:54 26.05   13 км    ясно  +16.7  +14.4  86  +17  +17    1021.1  945.9         

 

Местоположение метеостанции Asheville Regional Airport: широта 35.4319 долгота -82.5375 высота над уровнем моря 660 м.

В архиве по умолчанию представлена погода в Эшвилле за последние 1-2 суток. Обновление информации о фактической погоде в базе происходит ежечасно! Архивные данные за месяц целиком и за предыдущие месяцы Вы можете получить, выбрав интересующий диапазон дат из раскрывающегося списка и нажав кнопку "Ввод!".

Внимание! Архив погоды МЕТАР в базе сайта в настоящее время начинается c 1 января 2011 г. Нет смысла пытаться выбрать более раннюю дату.

Внимание! Время в таблицах - всемирное. Для получения местного времени необходимо прибавить поправку, которая в Эшвилле равна -5 ч.

Ветер - указаны скорость ветра в м/с и направление, откуда дует ветер: С - северный, СВ - северо-восточный, В - восточный, ЮВ - юго-восточный, Ю - южный, ЮЗ - юго-западный, З - западный, СЗ - северо-западный.
Видимость - горизонтальная дальность видимости в метрах или километрах. При видимости от 1 до 10 км при отсутствии осадков обычно наблюдается дымка, при ухудшении видимости до 1 км и менее - туман. В сухую погоду видимость может ухудшаться дымом, пылью или мглою.
Атмосферные явления - указаны явления, наблюдавшиеся в указанный момент времени.
Облачность - указаны через наклонную черту верхняя и нижняя облачность в баллах и высота нижней границы облаков в метрах. Внимание: облачность, как и прочие метеорологические величины в США измеряются автоматическими метеостанциями. Указанные значения в баллах носят условный характер и показывают процент времени, в течение которого, в среднем, лазерный луч высотомера отражался от облаков обратно.
T - Температура воздуха - температура, измеренная на высоте 2 м над землей.
Td - Температура точки росы - температура, при понижении до которой содержащийся в воздухе водяной пар достигнет насыщения.
f - Относительная влажность воздуха - влажноcть воздуха, измеренная на высоте 2 м над землей.
Te - Эффективная температура - температура, которую ощущает одетый по сезону человек в тени. Характеристика душности погоды. При расчете учитывается влияние влажности воздуха и скорости ветра на теплоощущения человека.
Tes - Эффективная температура на солнце - температура, которую ощущает человек, с поправкой на солнечный нагрев. Характеристика знойности погоды. Зависит от высоты солнца над горизонтом, облачности и скорости ветра. Ночью, в пасмурную погоду, а также при ветре 12 м/с и более поправка равна нулю.
P - Атмосферное давление - приведенное к уровню моря атмосферное давление.
Po - Атмосферное давление - измеренное на уровне метеостанции атмосферное давление.
Tmin - Минимальная температура - минимум температуры воздуха на высоте 2 м над землей.
Tmax - Максимальная температура - максимум температуры воздуха на высоте 2 м над землей.
R - Количество осадков - Количество выпавших осадков за 3 или 6 часов, мм.
SD - Снежный покров - Высота снежного покрова, см.